W0QQ Weather Reports


Display with metric or nautical units.
time (UTC)temp
F
wind
direction
speed
MPH
gust
MPH
rain 1hr
in
rain 24hr
in
rain mn
in
humidity
%
barometer
mb
20260502170112 59 300 2.0 7.0 0.00 0.00 0.00 44 1022.6
20260502163117 59 40 1.0 10.0 0.00 0.00 0.00 46 1022.7
20260502161534 59 11 3.0 8.0 0.00 0.00 0.00 44 1022.6
20260502160128 58 94 3.0 6.0 0.00 0.00 0.00 46 1022.6
20260502151546 55 72 2.0 6.0 0.00 0.00 0.00 58 1022.6
20260502150130 54 41 1.0 8.0 0.00 0.00 0.00 60 1022.7
20260502123034 40 35 0.0 4.0 0.00 0.00 0.00 72 1021.8
20260502121625 40 39 1.0 3.0 0.00 0.00 0.00 73 1021.6
20260502114626 40 39 0.0 3.0 0.00 0.00 0.00 71 1021.4
20260502113039 40 38 0.0 4.0 0.00 0.00 0.00 71 1021.1
20260502111633 40 37 0.0 4.0 0.00 0.00 0.00 71 1021.1
20260502110044 40 43 0.0 3.0 0.00 0.00 0.00 71 1021.0
20260502104532 40 43 0.0 5.0 0.00 0.00 0.00 71 1021.1
20260502103116 40 11 0.0 4.0 0.00 0.00 0.00 72 1020.9
20260502101536 40 20 0.0 5.0 0.00 0.00 0.00 72 1020.7
20260502100129 40 45 0.0 3.0 0.00 0.00 0.00 71 1020.5
20260502090106 42 45 0.0 2.0 0.00 0.00 0.00 69 1020.4
20260502080108 44 47 0.0 2.0 0.00 0.00 0.00 64 1020.0
20260502070126 45 60 0.0 2.0 0.00 0.00 0.00 62 1020.2
20260502064547 46 68 0.0 1.0 0.00 0.00 0.00 62 1020.2
20260502063133 46 68 0.0 4.0 0.00 0.00 0.00 62 1020.3
20260502061543 47 68 0.0 4.0 0.00 0.00 0.00 60 1020.2
20260502060133 47 67 0.0 2.0 0.00 0.00 0.00 59 1020.3
20260502054556 48 11 1.0 3.0 0.00 0.00 0.00 59 1020.2
20260502053008 48 68 1.0 5.0 0.00 0.00 0.00 58 1020.3
20260502051556 49 71 2.0 6.0 0.00 0.00 0.00 59 1020.1
20260502050003 49 55 1.0 3.0 0.00 0.00 0.00 58 1020.1
20260502044558 49 55 0.0 2.0 0.00 0.00 0.00 59 1020.1
20260502043009 50 53 0.0 3.0 0.00 0.00 0.00 57 1020.0
20260502041600 51 59 0.0 2.0 0.00 0.00 0.00 55 1019.8
20260502040012 51 54 0.0 3.0 0.00 0.00 0.00 54 1019.7
20260502034559 52 59 1.0 4.0 0.00 0.00 0.00 54 1019.6
20260502033014 52 11 3.0 8.0 0.00 0.00 0.00 53 1019.5
20260502031602 53 35 2.0 6.0 0.00 0.00 0.00 56 1019.3
20260502030014 53 26 0.0 2.0 0.00 0.00 0.00 55 1019.2
20260502024559 54 26 1.0 4.0 0.00 0.00 0.00 54 1018.8
20260502023015 55 23 0.0 4.0 0.00 0.00 0.00 53 1018.5
20260502021616 55 22 1.0 3.0 0.00 0.00 0.00 52 1018.3
20260502020027 56 31 0.0 4.0 0.00 0.00 0.00 52 1018.2
20260502014623 57 26 0.0 3.0 0.00 0.00 0.00 50 1018.1
20260502013041 58 11 1.0 4.0 0.00 0.00 0.00 49 1017.9
20260502011623 59 35 1.0 4.0 0.00 0.00 0.00 47 1017.6
20260502010041 60 29 1.0 6.0 0.00 0.00 0.00 46 1017.5
20260502004626 60 47 0.0 9.0 0.00 0.00 0.00 45 1017.2
20260502003043 61 6 3.0 9.0 0.00 0.00 0.00 42 1016.9
20260502001631 61 38 0.0 10.0 0.00 0.00 0.00 43 1016.7
20260502000053 62 30 3.0 8.0 0.00 0.00 0.00 42 1016.7
20260501234631 62 26 2.0 8.0 0.00 0.00 0.00 42 1016.6
20260501233052 62 276 3.0 9.0 0.00 0.00 0.00 42 1016.7
20260501231519 63 31 1.0 9.0 0.00 0.00 0.00 39 1016.6
20260501230106 63 282 4.0 10.0 0.00 0.00 0.00 41 1016.5
20260501224517 64 295 2.0 11.0 0.00 0.00 0.00 42 1016.6
20260501223105 64 29 2.0 11.0 0.00 0.00 0.00 39 1016.6
20260501221519 63 33 4.0 10.0 0.00 0.00 0.00 42 1016.7
20260501220100 63 11 3.0 11.0 0.00 0.00 0.00 44 1016.8
20260501214512 63 284 3.0 12.0 0.00 0.00 0.00 42 1017.0
20260501213107 63 247 2.0 15.0 0.00 0.00 0.00 41 1017.1
20260501211525 64 11 4.0 9.0 0.00 0.00 0.00 42 1017.4
20260501210125 64 340 1.0 10.0 0.00 0.00 0.00 40 1017.6
20260501204529 65 281 7.0 13.0 0.00 0.00 0.00 39 1017.8
20260501203119 66 11 4.0 15.0 0.00 0.00 0.00 40 1018.0
20260501201541 66 11 4.0 14.0 0.00 0.00 0.00 42 1018.2
20260501200123 65 11 6.0 14.0 0.00 0.00 0.00 43 1018.3
20260501194532 64 11 5.0 10.0 0.00 0.00 0.00 40 1018.5
20260501193116 65 11 2.0 9.0 0.00 0.00 0.00 42 1018.7
20260501191533 64 288 4.0 12.0 0.00 0.00 0.00 39 1018.8
20260501190129 66 11 4.0 13.0 0.00 0.00 0.00 41 1018.8
20260501184545 67 11 4.0 16.0 0.00 0.00 0.00 39 1018.8
20260501183004 66 238 1.0 10.0 0.00 0.00 0.00 44 1018.9
20260501181557 66 27 2.0 10.0 0.00 0.00 0.00 37 1019.1
20260501180025 66 34 5.0 11.0 0.00 0.00 0.00 37 1019.2
20260501174604 66 290 2.0 10.0 0.00 0.00 0.00 42 1019.3
20260501173021 65 11 0.0 8.0 0.00 0.00 0.00 41 1019.5